Weather History for KMNH - June, 2013

Change the Weather History Date:

Tuesday, June 18, 2013

  Actual Average (KAPA) Record (KAPA)
Temperature  
Mean Temperature 64 °F -  
Max Temperature 77 °F 77 °F 96 °F (2012)
Min Temperature 50 °F 49 °F 42 °F (2000)
Degree Days  
Heating Degree Days 2    
Growing Degree Days 14 (Base 50)    
Moisture  
Dew Point 44 °F    
Average Humidity 60    
Maximum Humidity 82    
Minimum Humidity 29    
Precipitation  
Precipitation 0.38 in - - ()
Sea Level Pressure  
Sea Level Pressure 30.17 in    
Wind  
Wind Speed 14 mph (South)    
Max Wind Speed 24 mph    
Max Gust Speed 36 mph    
Visibility 10 miles    
Events Rain , Thunderstorm    
Averages and records for this station are not official NWS values.
T = Trace of Precipitation, MM = Missing Value Source: NWS Daily Summary

Daily Weather History Graph

Daily Weather History Graph

Search for Another Location

Airport or City:

Trip Planner

Search our weather history database for the weather conditions in past years. The results will help you decide how hot, cold, wet, or windy it might be!

Date:

Astronomy

Jun. 18, 2013 Rise Set
Actual Time 5:31 AM MDT 8:27 PM MDT
Civil Twilight 4:59 AM MDT 9:00 PM MDT
Nautical Twilight 4:18 AM MDT 9:40 PM MDT
Astronomical Twilight 3:31 AM MDT 10:27 PM MDT
Moon 3:16 PM MDT (6/18) 1:39 AM MDT (6/18)
Length of Visible Light 16h 00m
Length of Day
14h 55m
Waxing Gibbous, 71% of the Moon is Illuminated
Jun 18
Waxing Gibbous
Jun 23
Full
Jun 29
Last Quarter
Jul 8
New
Jul 15
First Quarter

Hourly Weather History & Observations

Time (MDT) Temp. Dew Point Humidity Pressure Visibility Wind Dir Wind Speed Gust Speed Precip Events Conditions
12:14 AM 53.6 °F 41.0 °F 62% 30.27 in 10.0 mi South 13.8 mph - N/A   Clear
12:34 AM 55.4 °F 41.0 °F 58% 30.26 in 10.0 mi South 17.3 mph 23.0 mph N/A   Clear
12:54 AM 55.4 °F 41.0 °F 58% 30.26 in 10.0 mi South 16.1 mph 26.5 mph N/A   Clear
1:14 AM 55.4 °F 41.0 °F 58% 30.25 in 10.0 mi South 18.4 mph 23.0 mph N/A   Clear
1:34 AM 53.6 °F 42.8 °F 67% 30.26 in 10.0 mi South 19.6 mph 23.0 mph N/A   Clear
1:54 AM 53.6 °F 42.8 °F 67% 30.26 in 10.0 mi South 13.8 mph - N/A   Clear
2:14 AM 53.6 °F 44.6 °F 72% 30.25 in 10.0 mi South 17.3 mph 20.7 mph N/A   Clear
2:34 AM 53.6 °F 44.6 °F 72% 30.25 in 10.0 mi South 17.3 mph 21.9 mph N/A   Clear
2:54 AM 53.6 °F 44.6 °F 72% 30.25 in 10.0 mi South 17.3 mph - N/A   Scattered Clouds
3:14 AM 53.6 °F 44.6 °F 72% 30.24 in 10.0 mi South 21.9 mph 26.5 mph N/A   Clear
3:34 AM 51.8 °F 44.6 °F 76% 30.23 in 10.0 mi South 15.0 mph 20.7 mph N/A   Clear
3:54 AM 51.8 °F 44.6 °F 76% 30.23 in 10.0 mi SSW 16.1 mph - N/A   Clear
4:14 AM 51.8 °F 44.6 °F 76% 30.25 in 10.0 mi West 9.2 mph - N/A   Clear
4:34 AM 50.0 °F 44.6 °F 82% 30.25 in 10.0 mi WSW 6.9 mph - N/A   Clear
4:54 AM 50.0 °F 44.6 °F 82% 30.24 in 10.0 mi SW 9.2 mph - N/A   Clear
5:14 AM 50.0 °F 44.6 °F 82% 30.24 in 10.0 mi SSW 8.1 mph - N/A   Clear
5:34 AM 50.0 °F 44.6 °F 82% 30.23 in 10.0 mi SW 10.4 mph - N/A   Clear
5:54 AM 50.0 °F 44.6 °F 82% 30.24 in 10.0 mi SSW 4.6 mph - N/A   Clear
6:14 AM 50.0 °F 42.8 °F 76% 30.25 in 10.0 mi SSW 5.8 mph - N/A   Clear
6:34 AM 51.8 °F 44.6 °F 76% 30.25 in 10.0 mi SSW 5.8 mph - N/A   Clear
6:54 AM 53.6 °F 44.6 °F 72% 30.24 in 10.0 mi SW 5.8 mph - N/A   Clear
7:14 AM 57.2 °F 44.6 °F 63% 30.24 in 10.0 mi SW 8.1 mph - N/A   Clear
7:33 AM 60.8 °F 44.6 °F 55% 30.24 in 10.0 mi WSW 8.1 mph - N/A   Clear
7:53 AM 62.6 °F 42.8 °F 48% 30.23 in 10.0 mi West 8.1 mph - N/A   Clear
8:13 AM 62.6 °F 42.8 °F 48% 30.23 in 10.0 mi WSW 4.6 mph - N/A   Clear
8:34 AM 64.4 °F 42.8 °F 45% 30.23 in 10.0 mi SSW 4.6 mph - N/A   Clear
8:54 AM 68.0 °F 41.0 °F 37% 30.23 in 10.0 mi SE 3.5 mph - N/A   Clear
9:14 AM 69.8 °F 41.0 °F 35% 30.23 in 10.0 mi SSE 13.8 mph 17.3 mph N/A   Clear
9:34 AM 69.8 °F 41.0 °F 35% 30.22 in 10.0 mi SSE 11.5 mph - N/A   Clear
9:54 AM 69.8 °F 42.8 °F 38% 30.21 in 10.0 mi SSE 12.7 mph - N/A   Clear
10:13 AM 69.8 °F 46.4 °F 43% 30.21 in 10.0 mi South 12.7 mph 20.7 mph N/A   Clear
10:34 AM 69.8 °F 42.8 °F 38% 30.20 in 10.0 mi South 16.1 mph 21.9 mph N/A   Clear
10:54 AM 71.6 °F 44.6 °F 38% 30.20 in 10.0 mi SSE 13.8 mph - N/A   Clear
11:14 AM 71.6 °F 42.8 °F 35% 30.20 in 10.0 mi South 16.1 mph - N/A   Clear
11:34 AM 71.6 °F 44.6 °F 38% 30.19 in 10.0 mi SSE 17.3 mph 26.5 mph N/A   Clear
11:54 AM 71.6 °F 46.4 °F 41% 30.19 in 10.0 mi SE 18.4 mph 26.5 mph N/A   Clear
12:14 PM 73.4 °F 46.4 °F 38% 30.18 in 10.0 mi SE 18.4 mph 23.0 mph N/A   Clear
12:34 PM 75.2 °F 46.4 °F 36% 30.17 in 10.0 mi SSE 21.9 mph 25.3 mph N/A   Clear
12:53 PM 69.8 °F 44.6 °F 40% 30.17 in 10.0 mi SSE 18.4 mph 25.3 mph N/A   Clear
1:13 PM 69.8 °F 46.4 °F 43% 30.16 in 10.0 mi SSE 17.3 mph 25.3 mph N/A   Clear
1:34 PM 71.6 °F 44.6 °F 38% 30.15 in 10.0 mi South 15.0 mph - N/A   Clear
1:54 PM 77.0 °F 42.8 °F 29% 30.14 in 10.0 mi SSE 17.3 mph 28.8 mph N/A   Clear
2:14 PM 77.0 °F 42.8 °F 29% 30.13 in 10.0 mi South 16.1 mph 25.3 mph N/A   Clear
2:34 PM 71.6 °F 41.0 °F 33% 30.13 in 10.0 mi South 16.1 mph 24.2 mph N/A   Scattered Clouds
2:54 PM 71.6 °F 41.0 °F 33% 30.12 in 10.0 mi SSE 15.0 mph 20.7 mph N/A   Scattered Clouds
3:14 PM 71.6 °F 39.2 °F 31% 30.11 in 10.0 mi SSE 12.7 mph 19.6 mph N/A Thunderstorm Scattered Clouds
3:33 PM 71.6 °F 41.0 °F 33% 30.11 in 7.0 mi SE 9.2 mph - N/A Thunderstorm Mostly Cloudy
3:53 PM 64.4 °F 42.8 °F 45% 30.10 in 10.0 mi ENE 11.5 mph 16.1 mph N/A Rain , Thunderstorm Light Thunderstorms and Rain
4:14 PM 64.4 °F 50.0 °F 59% 30.11 in 10.0 mi East 8.1 mph 21.9 mph N/A Rain , Thunderstorm Thunderstorms and Rain
4:34 PM 55.4 °F 48.2 °F 77% 30.13 in 2.0 mi South 13.8 mph 18.4 mph 0.27 in Rain , Thunderstorm Heavy Thunderstorms and Rain
4:54 PM 57.2 °F 51.8 °F 82% 30.08 in 7.0 mi SE 19.6 mph 31.1 mph 0.37 in Rain , Thunderstorm Thunderstorms and Rain
5:14 PM 60.8 °F 53.6 °F 77% 30.11 in 10.0 mi SSE 24.2 mph 33.4 mph N/A Thunderstorm Scattered Clouds
5:34 PM 59.0 °F 50.0 °F 72% 30.10 in 10.0 mi SE 18.4 mph 35.7 mph N/A   Scattered Clouds
5:53 PM 59.0 °F 50.0 °F 72% 30.09 in 10.0 mi SE 16.1 mph - N/A   Scattered Clouds
6:14 PM 57.2 °F 48.2 °F 72% 30.11 in 10.0 mi SE 10.4 mph - N/A   Clear
6:34 PM 55.4 °F 50.0 °F 82% 30.10 in 10.0 mi SSE 13.8 mph - N/A Rain Rain
6:54 PM 55.4 °F 50.0 °F 82% 30.08 in 10.0 mi SE 8.1 mph 19.6 mph 0.01 in   Mostly Cloudy
7:14 PM 59.0 °F 48.2 °F 67% 30.07 in 10.0 mi SSE 16.1 mph 21.9 mph N/A   Mostly Cloudy
7:34 PM 60.8 °F 46.4 °F 59% 30.07 in 10.0 mi SE 18.4 mph 21.9 mph N/A   Mostly Cloudy
7:54 PM 59.0 °F 44.6 °F 59% 30.07 in 10.0 mi SE 18.4 mph 25.3 mph N/A   Scattered Clouds
8:14 PM 55.4 °F 44.6 °F 67% 30.08 in 10.0 mi SE 15.0 mph 24.2 mph N/A   Clear
8:34 PM 55.4 °F 44.6 °F 67% 30.08 in 10.0 mi SSE 13.8 mph 20.7 mph N/A   Clear
8:54 PM 53.6 °F 44.6 °F 72% 30.10 in 10.0 mi SSE 11.5 mph - N/A   Clear
9:14 PM 53.6 °F 44.6 °F 72% 30.11 in 10.0 mi South 10.4 mph - N/A   Scattered Clouds
9:34 PM 53.6 °F 44.6 °F 72% 30.11 in 10.0 mi South 10.4 mph - N/A   Scattered Clouds
9:53 PM 53.6 °F 44.6 °F 72% 30.10 in 10.0 mi South 13.8 mph - N/A   Scattered Clouds
10:14 PM 53.6 °F 42.8 °F 67% 30.10 in 10.0 mi South 12.7 mph - N/A   Clear
10:33 PM 53.6 °F 42.8 °F 67% 30.11 in 10.0 mi South 13.8 mph - N/A   Clear
10:54 PM 53.6 °F 42.8 °F 67% 30.11 in 10.0 mi South 12.7 mph 17.3 mph N/A   Clear
11:14 PM 51.8 °F 42.8 °F 71% 30.12 in 10.0 mi SSE 9.2 mph - N/A   Clear
11:34 PM 51.8 °F 42.8 °F 71% 30.12 in 10.0 mi SSE 11.5 mph 16.1 mph N/A   Clear
11:54 PM 51.8 °F 44.6 °F 76% 30.13 in 10.0 mi SE 10.4 mph - N/A   Clear